Flag for Israel Weather past 2 weeks in Bnei Brak, Israel

Now
77 °F

Passing clouds.


Feels Like: 79 °F
Forecast: 76 / 87 °F
Wind: 3 mph from North

Location: Dov Airport

Current Time: Sep 24, 2014 at 8:27:35 AM

Latest Report: Sep 24, 2014 at 7:50 AM


Visibility: N/A

Pressure: 29.95 "Hg

Humidity: 74%

Dew point: 68 °F

Location of Bnei BrakLocation

Historic Weather in Bnei Brak — Graph

°F

Bnei Brak temperature yesterday

Maximum temperature yesterday: 86 °F (at 1:50 PM)
Minimum temperature yesterday: 75 °F (at 5:50 AM)
Average temperature yesterday: 82 °F

Past Weeks' High & Low Weather Summary

 TemperatureHumidityPressure
High91 °F (Sep 17, 3:50 PM)78% (Sep 10, 6:50 AM)29.95 "Hg (Sep 10, 6:50 AM)
Low73 °F (Sep 22, 5:50 AM)31% (Sep 17, 9:50 AM)29.68 "Hg (Sep 17, 3:50 PM)
Average82 °F62%29.86 "Hg
* Reported Sep 9 6:50 AM — Sep 24 6:50 AM, Bnei Brak, Weather by CustomWeather, © 2014

Note: Actual official high and low records may vary slightly from our data, if they occured in-between our weather recording intervals... More about our weather records

Advertising

Bnei Brak weather history for previous 24 hours

 ConditionsComfort  
Time TempWeatherWind HumidityBarometerVisibility
6:50 AM
Sep 24
75 °FClear.3 mph78%29.95 "Hg10 mi
5:50 AM75 °FClear.3 mph78%29.92 "Hg10 mi
4:50 AM75 °FClear.5 mph78%29.92 "Hg10 mi
11:50 PM
Sep 23
79 °FPassing clouds.2 mph70%29.95 "HgN/A
10:50 PM79 °FPassing clouds.3 mph70%29.95 "HgN/A
9:50 PM79 °FPassing clouds.1 mph74%29.95 "HgN/A
8:50 PM81 °FPassing clouds.3 mph70%29.92 "HgN/A
7:50 PM81 °FPassing clouds.7 mph70%29.92 "HgN/A
6:50 PM82 °FPassing clouds.10 mph66%29.89 "HgN/A
5:50 PM84 °FPassing clouds.10 mph62%29.89 "HgN/A
4:50 PM84 °FPassing clouds.10 mph62%29.89 "HgN/A
3:50 PM86 °FPassing clouds.9 mph59%29.89 "HgN/A
2:50 PM84 °FPassing clouds.10 mph62%29.89 "HgN/A
1:50 PM86 °FPassing clouds.9 mph59%29.89 "HgN/A
12:50 PM84 °FPassing clouds.12 mph66%29.89 "HgN/A
11:50 AM84 °FPassing clouds.10 mph66%29.92 "HgN/A
10:50 AM84 °FPassing clouds.8 mph62%29.92 "HgN/A
9:50 AM84 °FPassing clouds.8 mph62%29.92 "HgN/A
8:50 AM82 °FPassing clouds.6 mph58%29.89 "HgN/A
Weather by CustomWeather, © 2014

See weather overviewHow to use our weather pages